Location: Newark
(52.3044°N, 5.0150°E)
Time: 20:47:01
(UTC+00:00)

Envisat - Visible Passes

Search period start: 13 December 2019 00:00
Search period end: 23 December 2019 00:00
Orbit: 764 x 766 km, 98.1° (Epoch: 13 December)

Date Brightness Start Highest point End Pass type
(mag) Time Alt. Az. Time Alt. Az. Time Alt. Az.
13 Dec 4.3 06:08:06 10° NNE 06:13:01 45° E 06:17:51 10° S visible
13 Dec 3.1 17:28:17 10° SSE 17:33:23 82° WSW 17:38:31 10° NNW visible
13 Dec 6.0 19:10:39 10° WSW 19:13:15 14° W 19:15:51 10° NW visible
14 Dec 5.5 05:31:51 10° NE 05:35:56 24° E 05:39:58 10° SE visible
14 Dec 3.1 16:51:44 10° SE 16:56:40 53° ENE 17:01:37 10° N visible
14 Dec 5.1 18:31:44 10° SSW 18:36:00 27° W 18:40:17 10° NW visible
15 Dec 6.2 04:56:41 10° ENE 04:58:38 12° E 05:00:34 10° ESE visible
15 Dec 3.3 06:33:29 10° NNE 06:38:36 72° ESE 06:43:40 10° S visible
15 Dec 3.8 16:15:47 10° ESE 16:20:08 29° ENE 16:24:30 10° N visible
15 Dec 3.8 17:54:00 10° S 17:58:57 51° W 18:03:56 10° NNW visible
16 Dec 4.6 05:56:56 10° NNE 06:01:39 37° E 06:06:21 10° SSE visible
16 Dec 2.9 17:17:01 10° SSE 17:22:05 83° ENE 17:27:13 10° NNW visible
16 Dec 5.7 18:58:31 10° SW 19:01:48 17° W 19:05:05 10° NW visible
17 Dec 5.7 05:20:51 10° NE 05:24:31 20° E 05:28:09 10° SE visible
17 Dec 3.0 06:59:00 10° NNE 07:04:06 73° WNW 07:09:09 10° SSW visible
17 Dec 3.3 16:40:38 10° SE 16:45:26 44° ENE 16:50:16 10° N visible
17 Dec 4.7 18:20:05 10° SSW 18:24:37 32° W 18:29:11 10° NNW visible
18 Dec 3.7 06:22:14 10° NNE 06:27:17 59° E 06:32:18 10° S visible
18 Dec 4.0 16:04:52 10° ESE 16:08:58 25° ENE 16:13:03 10° N visible
18 Dec 3.5 17:42:36 10° S 17:47:37 63° WSW 17:52:41 10° NNW visible
18 Dec 6.2 19:27:05 10° W 19:27:42 10° W 19:28:20 10° WNW visible
19 Dec 5.0 05:45:47 10° NNE 05:50:17 31° E 05:54:45 10° SSE visible
19 Dec 2.9 17:05:47 10° SSE 17:10:50 69° ENE 17:15:55 10° N visible
19 Dec 5.5 18:46:36 10° SW 18:50:22 21° W 18:54:09 10° NW visible
20 Dec 6.0 05:09:58 10° NE 05:13:04 16° E 05:16:11 10° SE visible
20 Dec 3.0 06:47:42 10° NNE 06:52:49 88° WNW 06:57:55 10° SSW visible
20 Dec 3.5 16:29:35 10° SE 16:34:13 37° ENE 16:38:53 10° N visible
20 Dec 4.4 18:08:30 10° SSW 18:13:15 39° W 18:18:02 10° NNW visible
21 Dec 4.1 06:11:01 10° NNE 06:15:58 48° E 06:20:52 10° S visible
21 Dec 3.1 17:31:14 10° S 17:36:19 76° WSW 17:41:26 10° NNW visible
21 Dec 6.1 19:13:59 10° WSW 19:16:14 13° W 19:18:30 10° WNW visible
22 Dec 5.3 05:34:41 10° NE 05:38:54 25° E 05:43:05 10° SSE visible
22 Dec 3.0 16:54:36 10° SSE 16:59:34 57° ENE 17:04:34 10° N visible
22 Dec 5.2 18:34:49 10° SSW 18:38:58 25° W 18:43:09 10° NW visible
